T7GPM LATI-LIEO

Flight info

Callsign T7GPM
Flight time 2h 16m
Altitude 18000
Route DIRES2W DIRES P92 KAPPO M603 PNZ/N0341F190 M603 SUKUN SUKUN2R
Aircraft P180/L-SBDGHM1RWXY/C

Departure

Time 2026-04-27 07:21
Airport Tirana International Airport Mother Teresa (LATI)

Arrival

Time 2026-04-27 09:38
Airport Olbia Costa Smeralda Airport (LIEO)
Time Latitude Longitude Altitude Speed Heading
2026-04-27 07:13 41.42067 19.71493 112 ft 0 kts 265°
2026-04-27 07:14 41.42065 19.71488 112 ft 2 kts 230°
2026-04-27 07:14 41.42039 19.71502 111 ft 7 kts 145°
2026-04-27 07:14 41.41965 19.71570 113 ft 16 kts 154°
2026-04-27 07:14 41.41852 19.71593 112 ft 17 kts 174°
2026-04-27 07:15 41.41727 19.71610 115 ft 19 kts 174°
2026-04-27 07:15 41.41589 19.71628 114 ft 21 kts 174°
2026-04-27 07:15 41.41441 19.71648 115 ft 22 kts 174°
2026-04-27 07:15 41.41287 19.71667 117 ft 23 kts 174°
2026-04-27 07:16 41.41127 19.71689 118 ft 23 kts 174°
2026-04-27 07:16 41.40965 19.71713 116 ft 23 kts 170°
2026-04-27 07:16 41.40805 19.71750 121 ft 23 kts 170°
2026-04-27 07:16 41.40664 19.71776 120 ft 13 kts 163°
2026-04-27 07:17 41.40643 19.71881 120 ft 14 kts 77°
2026-04-27 07:17 41.40666 19.72007 120 ft 2 kts 76°
2026-04-27 07:20 41.40674 19.72051 122 ft 9 kts 76°
2026-04-27 07:20 41.40701 19.72146 121 ft 13 kts 46°
2026-04-27 07:20 41.40723 19.72158 123 ft 0 kts 355°
2026-04-27 07:21 41.40990 19.72122 121 ft 96 kts 354°
2026-04-27 07:21 41.41923 19.71999 222 ft 158 kts 354°
2026-04-27 07:21 41.43041 19.71856 949 ft 164 kts 355°
2026-04-27 07:21 41.44139 19.71711 1422 ft 158 kts 355°
2026-04-27 07:22 41.45262 19.71560 1764 ft 171 kts 355°
2026-04-27 07:22 41.46519 19.71402 2096 ft 190 kts 356°
2026-04-27 07:22 41.47882 19.71245 2432 ft 203 kts 356°
2026-04-27 07:22 41.49328 19.71073 2749 ft 212 kts 356°
2026-04-27 07:23 41.50814 19.70913 3083 ft 217 kts 356°
2026-04-27 07:23 41.52332 19.70749 3401 ft 220 kts 356°
2026-04-27 07:23 41.53867 19.70588 3731 ft 222 kts 356°
2026-04-27 07:23 41.55408 19.70434 4060 ft 222 kts 356°
2026-04-27 07:24 41.56935 19.70282 4380 ft 224 kts 356°
2026-04-27 07:24 41.58496 19.70136 4708 ft 226 kts 356°
2026-04-27 07:24 41.60062 19.69931 5031 ft 226 kts 350°
2026-04-27 07:24 41.61445 19.68987 5349 ft 227 kts 316°
2026-04-27 07:25 41.62288 19.67219 5667 ft 228 kts 287°
2026-04-27 07:25 41.62303 19.65121 5994 ft 229 kts 256°
2026-04-27 07:25 41.61473 19.63331 6320 ft 231 kts 222°
2026-04-27 07:25 41.60039 19.62431 6646 ft 231 kts 188°
2026-04-27 07:26 41.58453 19.62367 6956 ft 231 kts 179°
2026-04-27 07:26 41.56844 19.62387 7276 ft 231 kts 181°
2026-04-27 07:26 41.55235 19.62286 7593 ft 231 kts 184°
2026-04-27 07:26 41.53623 19.62162 7919 ft 232 kts 183°
2026-04-27 07:27 41.52007 19.62090 8239 ft 231 kts 181°
2026-04-27 07:27 41.50399 19.62048 8572 ft 231 kts 181°
2026-04-27 07:27 41.48791 19.61993 8902 ft 231 kts 182°
2026-04-27 07:27 41.47184 19.61919 9239 ft 231 kts 182°
2026-04-27 07:28 41.45595 19.61842 9567 ft 231 kts 182°
2026-04-27 07:28 41.43987 19.61773 9909 ft 230 kts 182°
2026-04-27 07:28 41.42385 19.61708 10233 ft 229 kts 182°
2026-04-27 07:28 41.40795 19.61642 10542 ft 229 kts 182°
2026-04-27 07:29 41.39206 19.61574 10857 ft 228 kts 182°
2026-04-27 07:29 41.37622 19.61507 11175 ft 228 kts 182°
2026-04-27 07:29 41.36055 19.61440 11490 ft 228 kts 182°
2026-04-27 07:29 41.34471 19.61374 11815 ft 227 kts 182°
2026-04-27 07:30 41.32888 19.61307 12144 ft 227 kts 182°
2026-04-27 07:30 41.31309 19.61240 12472 ft 226 kts 182°
2026-04-27 07:30 41.29735 19.61175 12807 ft 226 kts 182°
2026-04-27 07:30 41.28174 19.60980 13135 ft 224 kts 199°
2026-04-27 07:31 41.26938 19.59787 13481 ft 221 kts 231°
2026-04-27 07:31 41.26064 19.58144 13820 ft 220 kts 238°
2026-04-27 07:31 41.25221 19.56456 14146 ft 219 kts 237°
2026-04-27 07:31 41.24347 19.54804 14453 ft 218 kts 236°
2026-04-27 07:32 41.23474 19.53167 14756 ft 217 kts 236°
2026-04-27 07:32 41.22618 19.51526 15078 ft 215 kts 237°
2026-04-27 07:32 41.21777 19.49894 15398 ft 213 kts 237°
2026-04-27 07:32 41.20942 19.48277 15711 ft 212 kts 237°
2026-04-27 07:33 41.20106 19.46670 16030 ft 210 kts 237°
2026-04-27 07:33 41.19285 19.45101 16363 ft 208 kts 237°
2026-04-27 07:33 41.18465 19.43526 16680 ft 206 kts 237°
2026-04-27 07:33 41.17654 19.41967 17009 ft 204 kts 237°
2026-04-27 07:34 41.16851 19.40426 17342 ft 202 kts 237°
2026-04-27 07:34 41.16058 19.38905 17678 ft 197 kts 237°
2026-04-27 07:34 41.15287 19.37428 17978 ft 194 kts 237°
2026-04-27 07:34 41.14499 19.35913 17986 ft 205 kts 237°
2026-04-27 07:35 41.13671 19.34321 17996 ft 214 kts 237°
2026-04-27 07:35 41.12816 19.32691 18001 ft 222 kts 237°
2026-04-27 07:35 41.11922 19.30982 17998 ft 229 kts 237°
2026-04-27 07:35 41.11001 19.29217 17998 ft 236 kts 237°
2026-04-27 07:36 41.10056 19.27408 18002 ft 241 kts 236°
2026-04-27 07:36 41.09088 19.25567 18004 ft 245 kts 236°
2026-04-27 07:36 41.08106 19.23691 18003 ft 249 kts 237°
2026-04-27 07:36 41.07113 19.21789 18001 ft 253 kts 236°
2026-04-27 07:37 41.06103 19.19864 18002 ft 255 kts 236°
2026-04-27 07:37 41.04954 19.18091 18003 ft 258 kts 225°
2026-04-27 07:37 41.03673 19.16408 18003 ft 260 kts 229°
2026-04-27 07:37 41.02501 19.14573 18002 ft 261 kts 232°
2026-04-27 07:38 41.01335 19.12708 17999 ft 263 kts 230°
2026-04-27 07:38 41.00103 19.10906 18001 ft 264 kts 227°
2026-04-27 07:38 40.98828 19.09150 18004 ft 265 kts 227°
2026-04-27 07:38 40.97563 19.07377 18006 ft 265 kts 229°
2026-04-27 07:39 40.96328 19.05563 18002 ft 265 kts 230°
2026-04-27 07:39 40.95103 19.03736 18003 ft 266 kts 230°
2026-04-27 07:39 40.93862 19.01921 18004 ft 266 kts 229°
2026-04-27 07:39 40.92602 19.00124 18004 ft 266 kts 228°
2026-04-27 07:40 40.91339 18.98327 18002 ft 267 kts 229°
2026-04-27 07:40 40.90103 18.96540 18003 ft 267 kts 229°
2026-04-27 07:40 40.88914 18.94663 18000 ft 266 kts 239°
2026-04-27 07:40 40.88054 18.92508 18001 ft 265 kts 245°
2026-04-27 07:41 40.87171 18.90368 18000 ft 265 kts 240°
2026-04-27 07:41 40.86169 18.88309 17998 ft 266 kts 238°
2026-04-27 07:41 40.85189 18.86234 18000 ft 265 kts 240°
2026-04-27 07:41 40.84581 18.84837 18003 ft 265 kts 242°
2026-04-27 07:42 40.83692 18.82695 17998 ft 265 kts 243°
2026-04-27 07:42 40.82495 18.79888 18001 ft 264 kts 242°
2026-04-27 07:42 40.81557 18.77807 18001 ft 264 kts 240°
2026-04-27 07:42 40.80919 18.76404 17995 ft 264 kts 241°
2026-04-27 07:43 40.79989 18.74316 17993 ft 264 kts 242°
2026-04-27 07:43 40.79086 18.72238 17993 ft 264 kts 242°
2026-04-27 07:43 40.78174 18.70134 17996 ft 264 kts 242°
2026-04-27 07:43 40.77248 18.68039 17996 ft 264 kts 241°
2026-04-27 07:44 40.76313 18.65946 17999 ft 264 kts 241°
2026-04-27 07:44 40.75422 18.63825 17997 ft 263 kts 249°
2026-04-27 07:44 40.74900 18.61518 17991 ft 262 kts 258°
2026-04-27 07:44 40.74477 18.59177 17993 ft 262 kts 257°
2026-04-27 07:45 40.73949 18.56873 17997 ft 263 kts 253°
2026-04-27 07:45 40.73376 18.54616 17999 ft 263 kts 253°
2026-04-27 07:45 40.72839 18.52311 17999 ft 262 kts 255°
2026-04-27 07:45 40.72349 18.49991 17999 ft 262 kts 256°
2026-04-27 07:46 40.71857 18.47667 17996 ft 263 kts 255°
2026-04-27 07:46 40.71335 18.45357 17996 ft 263 kts 255°
2026-04-27 07:46 40.70797 18.43052 17994 ft 263 kts 254°
2026-04-27 07:46 40.70267 18.40745 17982 ft 263 kts 255°
2026-04-27 07:47 40.69760 18.38458 17985 ft 262 kts 256°
2026-04-27 07:47 40.69252 18.36155 17985 ft 262 kts 255°
2026-04-27 07:47 40.68733 18.33857 17985 ft 261 kts 255°
2026-04-27 07:47 40.68207 18.31562 17985 ft 261 kts 255°
2026-04-27 07:48 40.67683 18.29269 17987 ft 261 kts 255°
2026-04-27 07:48 40.67168 18.26977 17987 ft 261 kts 255°
2026-04-27 07:48 40.66661 18.24714 17986 ft 261 kts 255°
2026-04-27 07:48 40.66140 18.22421 17985 ft 260 kts 255°
2026-04-27 07:49 40.65616 18.20135 17981 ft 260 kts 255°
2026-04-27 07:49 40.65091 18.17843 17980 ft 260 kts 255°
2026-04-27 07:49 40.64574 18.15558 17980 ft 260 kts 255°
2026-04-27 07:49 40.64058 18.13272 17980 ft 260 kts 255°
2026-04-27 07:50 40.63545 18.11023 17980 ft 260 kts 255°
2026-04-27 07:50 40.63019 18.08740 17980 ft 260 kts 255°
2026-04-27 07:50 40.62496 18.06464 17980 ft 260 kts 255°
2026-04-27 07:50 40.61976 18.04182 17980 ft 260 kts 255°
2026-04-27 07:51 40.61459 18.01904 17979 ft 260 kts 255°
2026-04-27 07:51 40.61075 17.99585 17975 ft 258 kts 270°
2026-04-27 07:51 40.61224 17.97271 17978 ft 257 kts 278°
2026-04-27 07:51 40.61429 17.94925 17979 ft 258 kts 275°
2026-04-27 07:52 40.61513 17.92560 17982 ft 258 kts 273°
2026-04-27 07:52 40.61579 17.90203 17984 ft 258 kts 274°
2026-04-27 07:52 40.61696 17.87845 17984 ft 258 kts 276°
2026-04-27 07:52 40.61848 17.85492 17985 ft 258 kts 276°
2026-04-27 07:53 40.61985 17.83170 17982 ft 258 kts 275°
2026-04-27 07:53 40.62096 17.80812 17990 ft 258 kts 274°
2026-04-27 07:53 40.62198 17.78453 17989 ft 258 kts 275°
2026-04-27 07:53 40.62314 17.76094 17989 ft 258 kts 275°
2026-04-27 07:54 40.62441 17.73738 17984 ft 258 kts 275°
2026-04-27 07:54 40.62564 17.71384 17983 ft 258 kts 275°
2026-04-27 07:54 40.62679 17.69025 17982 ft 258 kts 275°
2026-04-27 07:54 40.62790 17.66670 17981 ft 258 kts 275°
2026-04-27 07:55 40.62905 17.64314 17980 ft 258 kts 275°
2026-04-27 07:55 40.63025 17.61959 17980 ft 258 kts 275°
2026-04-27 07:55 40.63142 17.59629 17980 ft 258 kts 275°
2026-04-27 07:55 40.63254 17.57272 17984 ft 258 kts 275°
2026-04-27 07:56 40.63365 17.54915 17982 ft 258 kts 275°
2026-04-27 07:56 40.63479 17.52566 17982 ft 257 kts 275°
2026-04-27 07:56 40.63597 17.50219 17983 ft 256 kts 275°
2026-04-27 07:56 40.63709 17.47875 17982 ft 256 kts 275°
2026-04-27 07:57 40.63815 17.45541 17982 ft 255 kts 275°
2026-04-27 07:57 40.63922 17.43236 17982 ft 255 kts 275°
2026-04-27 07:57 40.64035 17.40906 17982 ft 255 kts 275°
2026-04-27 07:57 40.64148 17.38575 17981 ft 255 kts 275°
2026-04-27 07:58 40.64255 17.36248 17982 ft 255 kts 275°
2026-04-27 07:58 40.64361 17.33914 17982 ft 255 kts 275°
2026-04-27 07:58 40.64470 17.31584 17982 ft 255 kts 275°
2026-04-27 07:58 40.64581 17.29250 17981 ft 255 kts 275°
2026-04-27 07:59 40.64690 17.26922 17982 ft 255 kts 275°
2026-04-27 07:59 40.64898 17.22266 17986 ft 255 kts 275°
2026-04-27 07:59 40.65005 17.19935 17986 ft 255 kts 275°
2026-04-27 08:00 40.65112 17.17607 17989 ft 255 kts 275°
2026-04-27 08:00 40.65217 17.15275 18003 ft 255 kts 275°
2026-04-27 08:00 40.65320 17.12949 18004 ft 254 kts 275°
2026-04-27 08:00 40.65424 17.10618 18004 ft 254 kts 275°
2026-04-27 08:01 40.65529 17.08289 18007 ft 254 kts 275°
2026-04-27 08:01 40.65631 17.05965 18007 ft 254 kts 275°
2026-04-27 08:01 40.65731 17.03660 18004 ft 254 kts 275°
2026-04-27 08:01 40.65832 17.01336 18004 ft 255 kts 275°
2026-04-27 08:02 40.65935 16.99006 18004 ft 255 kts 275°
2026-04-27 08:02 40.66038 16.96675 18004 ft 255 kts 275°
2026-04-27 08:02 40.66139 16.94337 18004 ft 255 kts 275°
2026-04-27 08:02 40.66238 16.92000 18004 ft 255 kts 275°
2026-04-27 08:03 40.66336 16.89691 18004 ft 255 kts 275°
2026-04-27 08:03 40.66435 16.87355 18021 ft 255 kts 275°
2026-04-27 08:03 40.66535 16.85017 18025 ft 255 kts 275°
2026-04-27 08:03 40.66635 16.82684 18028 ft 255 kts 275°
2026-04-27 08:04 40.66733 16.80355 18031 ft 255 kts 275°
2026-04-27 08:04 40.66828 16.78019 18033 ft 255 kts 275°
2026-04-27 08:04 40.66925 16.75688 18036 ft 255 kts 275°
2026-04-27 08:04 40.67021 16.73383 18037 ft 255 kts 275°
2026-04-27 08:05 40.67118 16.71049 18039 ft 255 kts 275°
2026-04-27 08:05 40.67212 16.68712 18041 ft 254 kts 275°
2026-04-27 08:05 40.67305 16.66384 18041 ft 255 kts 275°
2026-04-27 08:05 40.67402 16.64049 18042 ft 255 kts 275°
2026-04-27 08:06 40.67499 16.61740 18044 ft 255 kts 275°
2026-04-27 08:06 40.67593 16.59404 18044 ft 256 kts 275°
2026-04-27 08:06 40.67683 16.57062 18043 ft 256 kts 275°
2026-04-27 08:06 40.67775 16.54719 18041 ft 256 kts 275°
2026-04-27 08:07 40.67869 16.52379 18039 ft 256 kts 275°
2026-04-27 08:07 40.67961 16.50036 18035 ft 256 kts 275°
2026-04-27 08:07 40.68053 16.47701 18035 ft 255 kts 275°
2026-04-27 08:07 40.68145 16.45358 18033 ft 256 kts 275°
2026-04-27 08:08 40.68235 16.43049 18028 ft 256 kts 275°
2026-04-27 08:08 40.68324 16.40706 18025 ft 256 kts 275°
2026-04-27 08:08 40.68414 16.38366 18020 ft 256 kts 275°
2026-04-27 08:08 40.68504 16.36025 18017 ft 256 kts 275°
2026-04-27 08:09 40.68593 16.33686 18007 ft 256 kts 275°
2026-04-27 08:09 40.68678 16.31350 18011 ft 256 kts 275°
2026-04-27 08:09 40.68766 16.29006 18011 ft 256 kts 275°
2026-04-27 08:09 40.68856 16.26659 18010 ft 256 kts 275°
2026-04-27 08:10 40.68945 16.24309 18017 ft 256 kts 275°
2026-04-27 08:10 40.69029 16.21988 18017 ft 257 kts 275°
2026-04-27 08:10 40.69115 16.19626 18019 ft 256 kts 275°
2026-04-27 08:10 40.69200 16.17289 18018 ft 256 kts 275°
2026-04-27 08:11 40.69286 16.14926 18016 ft 256 kts 275°
2026-04-27 08:11 40.69371 16.12596 18015 ft 256 kts 275°
2026-04-27 08:11 40.69456 16.10248 18016 ft 256 kts 275°
2026-04-27 08:11 40.69540 16.07897 18016 ft 257 kts 275°
2026-04-27 08:12 40.69623 16.05542 18018 ft 257 kts 275°
2026-04-27 08:12 40.69706 16.03188 18016 ft 257 kts 275°
2026-04-27 08:12 40.69787 16.00858 18015 ft 257 kts 275°
2026-04-27 08:12 40.69869 15.98502 18013 ft 258 kts 275°
2026-04-27 08:13 40.69950 15.96134 18009 ft 258 kts 275°
2026-04-27 08:13 40.70034 15.93769 18012 ft 258 kts 275°
2026-04-27 08:13 40.70115 15.91435 18010 ft 258 kts 275°
2026-04-27 08:13 40.70196 15.89042 18011 ft 258 kts 275°
2026-04-27 08:14 40.70275 15.86705 18015 ft 258 kts 275°
2026-04-27 08:14 40.70353 15.84339 18015 ft 258 kts 275°
2026-04-27 08:14 40.70432 15.81972 18013 ft 258 kts 275°
2026-04-27 08:14 40.70511 15.79612 18014 ft 258 kts 275°
2026-04-27 08:15 40.70589 15.77248 18014 ft 258 kts 275°
2026-04-27 08:15 40.70667 15.74884 18014 ft 257 kts 275°
2026-04-27 08:15 40.70744 15.72525 18015 ft 258 kts 275°
2026-04-27 08:15 40.70822 15.70157 18016 ft 258 kts 275°
2026-04-27 08:16 40.70898 15.67823 18016 ft 258 kts 275°
2026-04-27 08:16 40.70974 15.65450 18015 ft 258 kts 275°
2026-04-27 08:16 40.71047 15.63088 18014 ft 258 kts 275°
2026-04-27 08:16 40.71121 15.60735 18015 ft 258 kts 275°
2026-04-27 08:17 40.71196 15.58350 18012 ft 258 kts 275°
2026-04-27 08:17 40.71269 15.56008 18011 ft 258 kts 275°
2026-04-27 08:17 40.71342 15.53649 18015 ft 258 kts 275°
2026-04-27 08:17 40.71416 15.51279 18016 ft 258 kts 275°
2026-04-27 08:18 40.71488 15.48945 18019 ft 258 kts 275°
2026-04-27 08:18 40.71560 15.46581 18020 ft 258 kts 275°
2026-04-27 08:18 40.71631 15.44210 18019 ft 258 kts 275°
2026-04-27 08:18 40.71702 15.41846 18016 ft 258 kts 275°
2026-04-27 08:19 40.71772 15.39483 18016 ft 259 kts 275°
2026-04-27 08:19 40.71842 15.37109 18017 ft 259 kts 275°
2026-04-27 08:19 40.71912 15.34741 18022 ft 258 kts 275°
2026-04-27 08:19 40.71981 15.32369 18022 ft 259 kts 275°
2026-04-27 08:20 40.72049 15.29990 18018 ft 259 kts 275°
2026-04-27 08:20 40.72119 15.27614 18015 ft 259 kts 275°
2026-04-27 08:20 40.72187 15.25244 18023 ft 259 kts 275°
2026-04-27 08:20 40.72253 15.22896 18021 ft 259 kts 275°
2026-04-27 08:21 40.72320 15.20518 18022 ft 259 kts 275°
2026-04-27 08:21 40.72386 15.18140 18025 ft 258 kts 275°
2026-04-27 08:21 40.72451 15.15774 18029 ft 258 kts 275°
2026-04-27 08:21 40.72515 15.13409 18022 ft 257 kts 275°
2026-04-27 08:22 40.72579 15.11047 18027 ft 258 kts 275°
2026-04-27 08:22 40.72648 15.08679 18024 ft 259 kts 275°
2026-04-27 08:22 40.72713 15.06304 18030 ft 259 kts 274°
2026-04-27 08:22 40.72772 15.03930 18029 ft 259 kts 275°
2026-04-27 08:23 40.72835 15.01554 18034 ft 259 kts 274°
2026-04-27 08:23 40.72896 14.99207 18041 ft 259 kts 274°
2026-04-27 08:23 40.72959 14.96831 18043 ft 259 kts 275°
2026-04-27 08:23 40.73023 14.94448 18041 ft 259 kts 274°
2026-04-27 08:24 40.73084 14.92066 18044 ft 259 kts 274°
2026-04-27 08:24 40.73144 14.89684 18037 ft 260 kts 274°
2026-04-27 08:24 40.73207 14.87304 18039 ft 260 kts 274°
2026-04-27 08:24 40.73263 14.84956 18038 ft 260 kts 274°
2026-04-27 08:25 40.73318 14.82570 18037 ft 259 kts 274°
2026-04-27 08:25 40.73380 14.80190 18037 ft 260 kts 274°
2026-04-27 08:25 40.73439 14.77810 18036 ft 260 kts 274°
2026-04-27 08:25 40.73496 14.75418 18035 ft 261 kts 274°
2026-04-27 08:26 40.73553 14.73028 18038 ft 261 kts 274°
2026-04-27 08:26 40.73609 14.70665 18040 ft 261 kts 274°
2026-04-27 08:26 40.73668 14.68271 18039 ft 261 kts 274°
2026-04-27 08:26 40.73723 14.65877 18039 ft 262 kts 274°
2026-04-27 08:27 40.73778 14.63475 18035 ft 262 kts 274°
2026-04-27 08:27 40.73833 14.61078 18036 ft 262 kts 274°
2026-04-27 08:27 40.73888 14.58675 18036 ft 262 kts 274°
2026-04-27 08:27 40.73944 14.56272 18035 ft 262 kts 274°
2026-04-27 08:28 40.73996 14.53867 18037 ft 262 kts 274°
2026-04-27 08:28 40.74048 14.51467 18036 ft 262 kts 274°
2026-04-27 08:28 40.74101 14.49063 18031 ft 261 kts 274°
2026-04-27 08:28 40.74155 14.46669 18038 ft 261 kts 274°
2026-04-27 08:29 40.74207 14.44270 18039 ft 261 kts 274°
2026-04-27 08:29 40.74257 14.41873 18038 ft 261 kts 274°
2026-04-27 08:29 40.74305 14.39505 18037 ft 261 kts 274°
2026-04-27 08:29 40.74354 14.37115 18037 ft 261 kts 274°
2026-04-27 08:30 40.74406 14.34721 18036 ft 261 kts 274°
2026-04-27 08:30 40.74458 14.32331 18036 ft 261 kts 274°
2026-04-27 08:30 40.74506 14.29941 18036 ft 261 kts 274°
2026-04-27 08:30 40.74536 14.28359 18036 ft 260 kts 274°
2026-04-27 08:31 40.74582 14.25965 18037 ft 260 kts 274°
2026-04-27 08:31 40.74630 14.23573 18037 ft 260 kts 274°
2026-04-27 08:31 40.74679 14.21186 18031 ft 260 kts 274°
2026-04-27 08:31 40.74742 14.18024 18031 ft 260 kts 273°
2026-04-27 08:32 40.74772 14.16410 18034 ft 260 kts 273°
2026-04-27 08:32 40.74813 14.14024 18034 ft 260 kts 273°
2026-04-27 08:32 40.74856 14.11637 18034 ft 260 kts 273°
2026-04-27 08:32 40.74902 14.09249 18034 ft 260 kts 274°
2026-04-27 08:33 40.74949 14.06892 18031 ft 260 kts 274°
2026-04-27 08:33 40.74994 14.04504 18031 ft 260 kts 273°
2026-04-27 08:33 40.75033 14.02116 18031 ft 260 kts 273°
2026-04-27 08:33 40.75072 13.99727 18032 ft 260 kts 273°
2026-04-27 08:34 40.75115 13.97338 18035 ft 260 kts 273°
2026-04-27 08:34 40.75160 13.94947 18035 ft 260 kts 273°
2026-04-27 08:34 40.75202 13.92559 18038 ft 260 kts 273°
2026-04-27 08:34 40.75240 13.90170 18038 ft 261 kts 273°
2026-04-27 08:35 40.75277 13.87778 18039 ft 261 kts 273°
2026-04-27 08:35 40.75317 13.85388 18032 ft 261 kts 273°
2026-04-27 08:35 40.75359 13.82990 18031 ft 261 kts 273°
2026-04-27 08:35 40.75398 13.80598 18031 ft 261 kts 273°
2026-04-27 08:36 40.75434 13.78202 18037 ft 261 kts 273°
2026-04-27 08:36 40.75469 13.75832 18037 ft 261 kts 273°
2026-04-27 08:36 40.75507 13.73433 18037 ft 261 kts 273°
2026-04-27 08:36 40.75546 13.71039 18038 ft 261 kts 273°
2026-04-27 08:37 40.75582 13.68627 18035 ft 261 kts 273°
2026-04-27 08:37 40.75616 13.66241 18035 ft 261 kts 273°
2026-04-27 08:37 40.75649 13.63841 18035 ft 261 kts 273°
2026-04-27 08:37 40.75684 13.61459 18035 ft 261 kts 273°
2026-04-27 08:38 40.75721 13.59046 18036 ft 261 kts 273°
2026-04-27 08:38 40.75755 13.56680 18035 ft 261 kts 273°
2026-04-27 08:38 40.75786 13.54252 18034 ft 262 kts 272°
2026-04-27 08:38 40.75816 13.51877 18034 ft 262 kts 273°
2026-04-27 08:39 40.75849 13.49478 18028 ft 262 kts 272°
2026-04-27 08:39 40.75883 13.47074 18031 ft 262 kts 272°
2026-04-27 08:39 40.75916 13.44668 18032 ft 262 kts 272°
2026-04-27 08:39 40.75946 13.42261 18025 ft 262 kts 272°
2026-04-27 08:40 40.75973 13.39853 18032 ft 263 kts 272°
2026-04-27 08:40 40.76001 13.37442 18032 ft 263 kts 272°
2026-04-27 08:40 40.76032 13.35061 18035 ft 263 kts 272°
2026-04-27 08:40 40.76064 13.32646 18028 ft 263 kts 272°
2026-04-27 08:41 40.76091 13.30234 18032 ft 263 kts 272°
2026-04-27 08:41 40.76116 13.27816 18036 ft 263 kts 272°
2026-04-27 08:41 40.76142 13.25401 18036 ft 263 kts 272°
2026-04-27 08:41 40.76171 13.22988 18037 ft 263 kts 272°
2026-04-27 08:42 40.76200 13.20567 18040 ft 263 kts 272°
2026-04-27 08:42 40.76225 13.18149 18040 ft 263 kts 272°
2026-04-27 08:42 40.76247 13.15762 18043 ft 263 kts 272°
2026-04-27 08:42 40.76271 13.13339 18044 ft 263 kts 272°
2026-04-27 08:43 40.76298 13.10921 18040 ft 263 kts 272°
2026-04-27 08:43 40.76324 13.08503 18040 ft 264 kts 272°
2026-04-27 08:43 40.76345 13.06087 18041 ft 264 kts 272°
2026-04-27 08:43 40.76364 13.03667 18041 ft 264 kts 272°
2026-04-27 08:44 40.76386 13.01248 18041 ft 264 kts 272°
2026-04-27 08:44 40.76412 12.98819 18041 ft 264 kts 272°
2026-04-27 08:44 40.76435 12.96428 18041 ft 264 kts 272°
2026-04-27 08:44 40.76452 12.94008 18041 ft 264 kts 271°
2026-04-27 08:45 40.76468 12.91592 18044 ft 264 kts 272°
2026-04-27 08:45 40.76490 12.89167 18045 ft 264 kts 272°
2026-04-27 08:45 40.76514 12.86749 18045 ft 264 kts 272°
2026-04-27 08:45 40.76531 12.84329 18045 ft 264 kts 272°
2026-04-27 08:46 40.76547 12.81909 18042 ft 264 kts 272°
2026-04-27 08:46 40.76565 12.79491 18043 ft 264 kts 272°
2026-04-27 08:46 40.76585 12.77067 18040 ft 263 kts 271°
2026-04-27 08:46 40.76603 12.74682 18040 ft 264 kts 271°
2026-04-27 08:47 40.76618 12.72260 18043 ft 264 kts 271°
2026-04-27 08:47 40.76631 12.69843 18043 ft 264 kts 271°
2026-04-27 08:47 40.76644 12.67418 18043 ft 264 kts 271°
2026-04-27 08:47 40.76660 12.64997 18043 ft 264 kts 271°
2026-04-27 08:48 40.76678 12.62575 18040 ft 264 kts 271°
2026-04-27 08:48 40.76692 12.60155 18040 ft 264 kts 271°
2026-04-27 08:48 40.76703 12.57737 18040 ft 264 kts 271°
2026-04-27 08:48 40.76713 12.55316 18039 ft 264 kts 271°
2026-04-27 08:49 40.76726 12.52898 18039 ft 264 kts 271°
2026-04-27 08:49 40.76741 12.50508 18040 ft 264 kts 271°
2026-04-27 08:49 40.76752 12.48086 18040 ft 264 kts 271°
2026-04-27 08:49 40.76759 12.45664 18037 ft 264 kts 271°
2026-04-27 08:50 40.76769 12.43248 18038 ft 264 kts 271°
2026-04-27 08:50 40.76781 12.40830 18038 ft 264 kts 271°
2026-04-27 08:50 40.76793 12.38406 18037 ft 264 kts 271°
2026-04-27 08:50 40.76801 12.36009 18040 ft 264 kts 271°
2026-04-27 08:51 40.76806 12.33584 18037 ft 264 kts 271°
2026-04-27 08:51 40.76811 12.31160 18037 ft 264 kts 271°
2026-04-27 08:51 40.76820 12.28732 18037 ft 264 kts 271°
2026-04-27 08:51 40.76830 12.26303 17986 ft 266 kts 271°
2026-04-27 08:52 40.76838 12.23858 17934 ft 267 kts 271°
2026-04-27 08:52 40.76844 12.21399 17883 ft 268 kts 271°
2026-04-27 08:52 40.76846 12.18927 17831 ft 269 kts 271°
2026-04-27 08:52 40.76848 12.16456 17780 ft 270 kts 271°
2026-04-27 08:53 40.76852 12.14006 17732 ft 270 kts 271°
2026-04-27 08:53 40.76859 12.11523 17681 ft 271 kts 271°
2026-04-27 08:53 40.76864 12.09036 17629 ft 271 kts 271°
2026-04-27 08:53 40.76865 12.06551 17578 ft 271 kts 270°
2026-04-27 08:54 40.76863 12.04056 17520 ft 271 kts 270°
2026-04-27 08:54 40.76864 12.01556 17469 ft 272 kts 270°
2026-04-27 08:54 40.76869 11.99066 17417 ft 272 kts 270°
2026-04-27 08:54 40.76871 11.96608 17367 ft 272 kts 270°
2026-04-27 08:55 40.76868 11.94105 17316 ft 272 kts 270°
2026-04-27 08:55 40.76864 11.91611 17265 ft 272 kts 270°
2026-04-27 08:55 40.76863 11.89115 17213 ft 272 kts 270°
2026-04-27 08:55 40.76863 11.86621 17162 ft 272 kts 270°
2026-04-27 08:56 40.76862 11.84124 17110 ft 272 kts 270°
2026-04-27 08:56 40.76859 11.81624 17059 ft 272 kts 270°
2026-04-27 08:56 40.76856 11.79133 17008 ft 272 kts 270°
2026-04-27 08:56 40.76852 11.76637 16957 ft 272 kts 270°
2026-04-27 08:57 40.76842 11.71655 16856 ft 272 kts 270°
2026-04-27 08:57 40.76838 11.69162 16805 ft 272 kts 270°
2026-04-27 08:57 40.76832 11.66703 16756 ft 271 kts 270°
2026-04-27 08:58 40.76826 11.64214 16705 ft 271 kts 270°
2026-04-27 08:58 40.76819 11.61725 16655 ft 271 kts 270°
2026-04-27 08:58 40.76809 11.59234 16604 ft 271 kts 270°
2026-04-27 08:58 40.76799 11.56747 16554 ft 271 kts 270°
2026-04-27 08:59 40.76791 11.54257 16502 ft 271 kts 270°
2026-04-27 08:59 40.76784 11.51760 16365 ft 274 kts 270°
2026-04-27 08:59 40.76780 11.49219 16118 ft 280 kts 270°
2026-04-27 08:59 40.76775 11.46620 15874 ft 285 kts 270°
2026-04-27 09:00 40.76765 11.43993 15632 ft 288 kts 270°
2026-04-27 09:00 40.76748 11.41374 15395 ft 290 kts 270°
2026-04-27 09:00 40.76734 11.38703 15157 ft 291 kts 270°
2026-04-27 09:00 40.76721 11.36024 14919 ft 292 kts 270°
2026-04-27 09:01 40.76707 11.33338 14647 ft 293 kts 270°
2026-04-27 09:01 40.76698 11.30609 14178 ft 301 kts 270°
2026-04-27 09:01 40.76698 11.27854 13922 ft 299 kts 270°
2026-04-27 09:01 40.76679 11.25123 13658 ft 297 kts 269°
2026-04-27 09:02 40.76641 11.22407 13395 ft 295 kts 269°
2026-04-27 09:02 40.76598 11.19706 13133 ft 294 kts 269°
2026-04-27 09:02 40.76571 11.17048 12877 ft 293 kts 269°
2026-04-27 09:02 40.76565 11.14366 12620 ft 292 kts 270°
2026-04-27 09:03 40.76569 11.11689 12365 ft 291 kts 270°
2026-04-27 09:03 40.76564 11.09021 12113 ft 291 kts 269°
2026-04-27 09:03 40.76539 11.06359 11863 ft 290 kts 269°
2026-04-27 09:03 40.76499 11.03703 11614 ft 289 kts 269°
2026-04-27 09:04 40.76458 11.01049 11368 ft 289 kts 269°
2026-04-27 09:04 40.76435 10.98397 11123 ft 288 kts 269°
2026-04-27 09:04 40.76428 10.95762 10880 ft 287 kts 270°
2026-04-27 09:04 40.76424 10.93121 10639 ft 287 kts 270°
2026-04-27 09:05 40.76406 10.90485 10400 ft 287 kts 269°
2026-04-27 09:05 40.76372 10.87853 10163 ft 287 kts 269°
2026-04-27 09:05 40.76331 10.85252 9913 ft 287 kts 269°
2026-04-27 09:05 40.76297 10.82619 9649 ft 286 kts 269°
2026-04-27 09:06 40.76277 10.79992 9388 ft 285 kts 269°
2026-04-27 09:06 40.76264 10.77381 9130 ft 284 kts 269°
2026-04-27 09:06 40.76246 10.74794 9044 ft 278 kts 269°
2026-04-27 09:06 40.76211 10.72269 9042 ft 271 kts 268°
2026-04-27 09:07 40.76154 10.69841 9039 ft 266 kts 268°
2026-04-27 09:07 40.76110 10.67405 9036 ft 263 kts 269°
2026-04-27 09:07 40.76098 10.65001 9034 ft 261 kts 270°
2026-04-27 09:07 40.76101 10.62603 9032 ft 260 kts 270°
2026-04-27 09:08 40.76090 10.60225 9031 ft 259 kts 269°
2026-04-27 09:08 40.76052 10.57858 9030 ft 258 kts 268°
2026-04-27 09:08 40.76004 10.55492 9030 ft 257 kts 269°
2026-04-27 09:08 40.75971 10.53165 9030 ft 257 kts 269°
2026-04-27 09:09 40.75954 10.50813 9025 ft 257 kts 269°
2026-04-27 09:09 40.75937 10.48451 9032 ft 256 kts 269°
2026-04-27 09:09 40.75904 10.46099 9032 ft 256 kts 269°
2026-04-27 09:09 40.75863 10.43746 9032 ft 256 kts 269°
2026-04-27 09:10 40.75828 10.41390 9029 ft 257 kts 269°
2026-04-27 09:10 40.75801 10.39040 9029 ft 256 kts 269°
2026-04-27 09:10 40.75776 10.36689 9030 ft 256 kts 269°
2026-04-27 09:10 40.75745 10.34335 9030 ft 256 kts 269°
2026-04-27 09:11 40.75708 10.31986 9030 ft 256 kts 269°
2026-04-27 09:11 40.75671 10.29635 9030 ft 256 kts 269°
2026-04-27 09:11 40.75637 10.27315 9027 ft 256 kts 269°
2026-04-27 09:11 40.75605 10.24965 9027 ft 256 kts 269°
2026-04-27 09:12 40.75573 10.22613 9027 ft 256 kts 269°
2026-04-27 09:12 40.75538 10.20259 9027 ft 256 kts 269°
2026-04-27 09:12 40.75500 10.17902 9028 ft 256 kts 269°
2026-04-27 09:12 40.75461 10.15553 9028 ft 256 kts 269°
2026-04-27 09:13 40.75426 10.13201 9028 ft 256 kts 269°
2026-04-27 09:13 40.75391 10.10883 9028 ft 256 kts 269°
2026-04-27 09:13 40.75353 10.08538 9028 ft 255 kts 269°
2026-04-27 09:13 40.75314 10.06196 9027 ft 255 kts 269°
2026-04-27 09:14 40.75272 10.03854 9026 ft 255 kts 268°
2026-04-27 09:14 40.75231 10.01502 9026 ft 255 kts 269°
2026-04-27 09:14 40.75194 9.99160 9026 ft 255 kts 269°
2026-04-27 09:14 40.75158 9.96847 9021 ft 255 kts 269°
2026-04-27 09:15 40.75117 9.94499 9020 ft 256 kts 268°
2026-04-27 09:15 40.75091 9.92152 9019 ft 255 kts 271°
2026-04-27 09:15 40.75545 9.89916 9019 ft 256 kts 301°
2026-04-27 09:15 40.76663 9.88096 9020 ft 256 kts 312°
2026-04-27 09:16 40.77849 9.86331 9025 ft 256 kts 308°
2026-04-27 09:16 40.78861 9.84422 9015 ft 256 kts 302°
2026-04-27 09:16 40.79830 9.82452 9014 ft 255 kts 303°
2026-04-27 09:16 40.80864 9.80538 9013 ft 256 kts 306°
2026-04-27 09:17 40.81942 9.78705 9013 ft 256 kts 307°
2026-04-27 09:17 40.83040 9.76850 9012 ft 256 kts 307°
2026-04-27 09:17 40.84101 9.74963 9011 ft 256 kts 305°
2026-04-27 09:17 40.84994 9.72947 9005 ft 255 kts 285°
2026-04-27 09:18 40.85034 9.70635 9005 ft 254 kts 260°
2026-04-27 09:18 40.84338 9.68514 9007 ft 254 kts 235°
2026-04-27 09:18 40.83267 9.66660 9008 ft 254 kts 233°
2026-04-27 09:18 40.82589 9.65406 9005 ft 253 kts 236°
2026-04-27 09:19 40.81649 9.63436 9003 ft 253 kts 238°
2026-04-27 09:19 40.80702 9.61466 8933 ft 256 kts 237°
2026-04-27 09:19 40.79328 9.58887 8764 ft 261 kts 234°
2026-04-27 09:19 40.78598 9.57575 8679 ft 263 kts 234°
2026-04-27 09:20 40.77528 9.55610 8559 ft 264 kts 235°
2026-04-27 09:20 40.76496 9.53642 8430 ft 265 kts 236°
2026-04-27 09:20 40.75472 9.51619 8307 ft 265 kts 237°
2026-04-27 09:20 40.74444 9.49591 8182 ft 265 kts 236°
2026-04-27 09:21 40.73400 9.47581 8055 ft 265 kts 235°
2026-04-27 09:21 40.72336 9.45591 7933 ft 265 kts 234°
2026-04-27 09:21 40.71311 9.43671 7818 ft 237 kts 235°
2026-04-27 09:21 40.70439 9.41985 7698 ft 212 kts 236°
2026-04-27 09:22 40.69640 9.40447 7573 ft 202 kts 235°
2026-04-27 09:22 40.68843 9.38953 7442 ft 196 kts 234°
2026-04-27 09:22 40.68063 9.37501 7317 ft 192 kts 234°
2026-04-27 09:22 40.67293 9.36054 7190 ft 193 kts 234°
2026-04-27 09:23 40.66527 9.34605 7065 ft 191 kts 234°
2026-04-27 09:23 40.65767 9.33164 6944 ft 192 kts 235°
2026-04-27 09:23 40.65019 9.31738 6825 ft 192 kts 235°
2026-04-27 09:23 40.64259 9.30290 6700 ft 192 kts 235°
2026-04-27 09:24 40.63500 9.28853 6578 ft 190 kts 234°
2026-04-27 09:24 40.62740 9.27428 6456 ft 190 kts 234°
2026-04-27 09:24 40.61987 9.25998 6332 ft 191 kts 234°
2026-04-27 09:24 40.61226 9.24556 6201 ft 191 kts 234°
2026-04-27 09:25 40.60469 9.23114 6077 ft 191 kts 234°
2026-04-27 09:25 40.59708 9.21672 5950 ft 192 kts 234°
2026-04-27 09:25 40.58937 9.20230 5829 ft 193 kts 234°
2026-04-27 09:25 40.58158 9.18778 5698 ft 194 kts 234°
2026-04-27 09:26 40.57382 9.17328 5572 ft 193 kts 234°
2026-04-27 09:26 40.56692 9.15818 5439 ft 194 kts 250°
2026-04-27 09:26 40.56643 9.14051 5298 ft 196 kts 281°
2026-04-27 09:26 40.57219 9.12467 5178 ft 197 kts 310°
2026-04-27 09:27 40.58296 9.11351 5053 ft 197 kts 328°
2026-04-27 09:27 40.59445 9.10376 4934 ft 196 kts 326°
2026-04-27 09:27 40.60548 9.09306 4805 ft 198 kts 324°
2026-04-27 09:27 40.61659 9.08226 4696 ft 201 kts 324°
2026-04-27 09:28 40.62799 9.07169 4548 ft 200 kts 326°
2026-04-27 09:28 40.64031 9.06325 4427 ft 201 kts 348°
2026-04-27 09:28 40.65391 9.06499 4286 ft 197 kts 20°
2026-04-27 09:28 40.66511 9.07493 4146 ft 195 kts 51°
2026-04-27 09:29 40.67254 9.08973 4014 ft 189 kts 60°
2026-04-27 09:29 40.67925 9.10316 4004 ft 165 kts 56°
2026-04-27 09:29 40.68577 9.11523 4002 ft 166 kts 56°
2026-04-27 09:29 40.69243 9.12791 3991 ft 166 kts 56°
2026-04-27 09:30 40.69882 9.14023 4014 ft 160 kts 56°
2026-04-27 09:30 40.70506 9.15242 4006 ft 161 kts 57°
2026-04-27 09:30 40.71153 9.16519 4000 ft 174 kts 57°
2026-04-27 09:30 40.71834 9.17842 4007 ft 176 kts 56°
2026-04-27 09:31 40.72527 9.19181 4015 ft 177 kts 57°
2026-04-27 09:31 40.73259 9.20506 4017 ft 179 kts 55°
2026-04-27 09:31 40.73948 9.21890 4012 ft 181 kts 59°
2026-04-27 09:31 40.74633 9.23293 4014 ft 183 kts 55°
2026-04-27 09:32 40.75403 9.24613 3994 ft 184 kts 53°
2026-04-27 09:32 40.76161 9.25961 4003 ft 182 kts 54°
2026-04-27 09:32 40.76892 9.27310 4000 ft 180 kts 55°
2026-04-27 09:32 40.77633 9.28661 4004 ft 182 kts 54°
2026-04-27 09:33 40.78371 9.30016 4001 ft 182 kts 54°
2026-04-27 09:33 40.79131 9.31403 3769 ft 188 kts 54°
2026-04-27 09:33 40.79862 9.32722 3500 ft 170 kts 54°
2026-04-27 09:33 40.80514 9.33982 3254 ft 163 kts 56°
2026-04-27 09:34 40.81145 9.35166 3085 ft 157 kts 54°
2026-04-27 09:34 40.81748 9.36301 3029 ft 141 kts 55°
2026-04-27 09:34 40.82289 9.37326 3009 ft 132 kts 55°
2026-04-27 09:34 40.82804 9.38295 3018 ft 126 kts 56°
2026-04-27 09:35 40.83315 9.39257 2946 ft 133 kts 54°
2026-04-27 09:35 40.83890 9.40311 2738 ft 144 kts 54°
2026-04-27 09:35 40.84486 9.41415 2603 ft 145 kts 55°
2026-04-27 09:35 40.85048 9.42500 2408 ft 143 kts 55°
2026-04-27 09:36 40.85618 9.43610 2055 ft 155 kts 56°
2026-04-27 09:36 40.86236 9.44810 1659 ft 160 kts 54°
2026-04-27 09:36 40.86888 9.46004 1305 ft 160 kts 55°
2026-04-27 09:36 40.87509 9.47223 972 ft 159 kts 56°
2026-04-27 09:37 40.88129 9.48460 687 ft 166 kts 55°
2026-04-27 09:37 40.88769 9.49674 347 ft 152 kts 55°
2026-04-27 09:37 40.89351 9.50779 86 ft 139 kts 55°
2026-04-27 09:37 40.89799 9.51640 32 ft 90 kts 55°
2026-04-27 09:38 40.90015 9.52048 28 ft 46 kts 54°
2026-04-27 09:38 40.90186 9.52373 28 ft 22 kts 55°
2026-04-27 09:38 40.90279 9.52550 25 ft 25 kts 55°
2026-04-27 09:38 40.90354 9.52676 24 ft 15 kts 30°
2026-04-27 09:39 40.90445 9.52653 26 ft 12 kts 296°
2026-04-27 09:39 40.90450 9.52628 24 ft 4 kts 281°
2026-04-27 09:39 40.90453 9.52578 25 ft 7 kts 274°
2026-04-27 09:39 40.90454 9.52508 25 ft 9 kts 265°
2026-04-27 09:40 40.90423 9.52433 26 ft 11 kts 237°
2026-04-27 09:40 40.90377 9.52345 26 ft 13 kts 234°
2026-04-27 09:40 40.90320 9.52237 27 ft 16 kts 236°
2026-04-27 09:40 40.90252 9.52107 28 ft 18 kts 235°
2026-04-27 09:41 40.90185 9.51978 29 ft 11 kts 234°
2026-04-27 09:41 40.90184 9.51869 29 ft 14 kts 278°
2026-04-27 09:41 40.90242 9.51801 30 ft 12 kts 12°
2026-04-27 09:41 40.90297 9.51893 29 ft 14 kts 55°
2026-04-27 09:42 40.90342 9.51983 28 ft 5 kts 76°
2026-04-27 09:42 40.90323 9.52017 28 ft 0 kts 142°